UAL2930 TXKF-KIAH

Flight info

Callsign UAL2930
Flight time 4h 25m
Altitude 32000
Route SOMRR1 ENAPI ALOBI M326 JAINS CAPPS CABLO DEFUN J2 SJI NNCEE2
Aircraft B738/M-VGDW/C

Departure

Time 2026-05-07 19:06
Airport L.F. Wade International Airport (TXKF)

Arrival

Time 2026-05-07 23:31
Airport George Bush Intercontinental Airport (KIAH)
Time Latitude Longitude Altitude Speed Heading
2026-05-07 18:05 32.35492 -64.70616 20 ft 0 kts 147°
2026-05-07 18:34 32.35498 -64.70620 20 ft 2 kts 147°
2026-05-07 18:34 32.35512 -64.70631 20 ft 3 kts 147°
2026-05-07 18:34 32.35529 -64.70644 20 ft 3 kts 147°
2026-05-07 18:35 32.35546 -64.70657 20 ft 3 kts 147°
2026-05-07 18:35 32.35563 -64.70670 20 ft 3 kts 147°
2026-05-07 18:35 32.35580 -64.70683 20 ft 3 kts 146°
2026-05-07 18:35 32.35595 -64.70699 20 ft 3 kts 129°
2026-05-07 18:36 32.35605 -64.70719 20 ft 3 kts 112°
2026-05-07 18:36 32.35610 -64.70743 20 ft 3 kts 95°
2026-05-07 18:36 32.35610 -64.70767 20 ft 3 kts 81°
2026-05-07 18:36 32.35604 -64.70791 20 ft 3 kts 68°
2026-05-07 18:37 32.35600 -64.70802 20 ft 0 kts 63°
2026-05-07 18:41 32.35602 -64.70797 20 ft 2 kts 64°
2026-05-07 18:42 32.35610 -64.70773 20 ft 5 kts 71°
2026-05-07 18:42 32.35627 -64.70730 20 ft 7 kts 58°
2026-05-07 18:42 32.35664 -64.70705 20 ft 6 kts 358°
2026-05-07 18:42 32.35705 -64.70725 20 ft 7 kts 334°
2026-05-07 18:43 32.35761 -64.70736 20 ft 10 kts 22°
2026-05-07 18:43 32.35806 -64.70666 20 ft 12 kts 60°
2026-05-07 18:43 32.35855 -64.70575 20 ft 14 kts 57°
2026-05-07 18:43 32.35914 -64.70477 20 ft 15 kts 54°
2026-05-07 18:44 32.35977 -64.70367 20 ft 17 kts 58°
2026-05-07 18:44 32.36039 -64.70243 20 ft 18 kts 62°
2026-05-07 18:44 32.36106 -64.70115 20 ft 19 kts 59°
2026-05-07 18:44 32.36181 -64.69980 20 ft 20 kts 58°
2026-05-07 18:45 32.36265 -64.69842 20 ft 21 kts 62°
2026-05-07 18:45 32.36345 -64.69691 20 ft 22 kts 56°
2026-05-07 18:45 32.36429 -64.69538 20 ft 23 kts 62°
2026-05-07 18:45 32.36516 -64.69379 20 ft 23 kts 60°
2026-05-07 18:46 32.36607 -64.69217 20 ft 24 kts 57°
2026-05-07 18:46 32.36699 -64.69049 20 ft 25 kts 63°
2026-05-07 18:46 32.36760 -64.68887 20 ft 18 kts 102°
2026-05-07 18:46 32.36730 -64.68735 20 ft 19 kts 103°
2026-05-07 18:47 32.36706 -64.68592 20 ft 17 kts 102°
2026-05-07 18:47 32.36684 -64.68455 20 ft 17 kts 99°
2026-05-07 18:47 32.36658 -64.68312 20 ft 18 kts 104°
2026-05-07 18:47 32.36632 -64.68166 20 ft 18 kts 102°
2026-05-07 18:48 32.36607 -64.68016 20 ft 19 kts 102°
2026-05-07 18:48 32.36578 -64.67865 20 ft 19 kts 101°
2026-05-07 18:48 32.36582 -64.67713 20 ft 19 kts 105°
2026-05-07 18:48 32.36535 -64.67569 20 ft 19 kts 108°
2026-05-07 18:49 32.36503 -64.67422 20 ft 18 kts 99°
2026-05-07 18:49 32.36477 -64.67273 20 ft 19 kts 102°
2026-05-07 18:49 32.36449 -64.67105 20 ft 23 kts 102°
2026-05-07 18:49 32.36415 -64.66907 20 ft 26 kts 101°
2026-05-07 18:50 32.36379 -64.66694 20 ft 26 kts 99°
2026-05-07 18:50 32.36345 -64.66498 20 ft 21 kts 103°
2026-05-07 18:50 32.36309 -64.66364 20 ft 13 kts 145°
2026-05-07 18:50 32.36245 -64.66364 20 ft 6 kts 190°
2026-05-07 18:51 32.36224 -64.66369 20 ft 0 kts 190°
2026-05-07 18:55 32.36223 -64.66369 20 ft 0 kts 190°
2026-05-07 19:03 32.36222 -64.66369 20 ft 0 kts 190°
2026-05-07 19:03 32.36220 -64.66369 20 ft 2 kts 190°
2026-05-07 19:04 32.36173 -64.66379 20 ft 10 kts 190°
2026-05-07 19:04 32.36151 -64.66391 20 ft 0 kts 251°
2026-05-07 19:04 32.36151 -64.66397 20 ft 2 kts 274°
2026-05-07 19:04 32.36152 -64.66403 20 ft 0 kts 281°
2026-05-07 19:05 32.36169 -64.66501 20 ft 39 kts 281°
2026-05-07 19:05 32.36266 -64.67073 20 ft 102 kts 283°
2026-05-07 19:05 32.36441 -64.68099 21 ft 155 kts 282°
2026-05-07 19:05 32.36702 -64.69460 416 ft 172 kts 283°
2026-05-07 19:06 32.37007 -64.70831 1087 ft 180 kts 284°
2026-05-07 19:06 32.37545 -64.73797 2196 ft 191 kts 279°
2026-05-07 19:06 32.37790 -64.75383 2722 ft 199 kts 279°
2026-05-07 19:07 32.38043 -64.77022 3239 ft 206 kts 279°
2026-05-07 19:07 32.38305 -64.78722 3729 ft 214 kts 279°
2026-05-07 19:07 32.38934 -64.82221 4704 ft 235 kts 284°
2026-05-07 19:08 32.39412 -64.84144 5109 ft 252 kts 285°
2026-05-07 19:08 32.39948 -64.86177 5604 ft 264 kts 286°
2026-05-07 19:08 32.40495 -64.88241 6245 ft 269 kts 286°
2026-05-07 19:08 32.41062 -64.90392 6969 ft 272 kts 286°
2026-05-07 19:09 32.41618 -64.92515 7631 ft 276 kts 286°
2026-05-07 19:09 32.42188 -64.94696 8307 ft 279 kts 286°
2026-05-07 19:09 32.42762 -64.96900 8971 ft 282 kts 286°
2026-05-07 19:09 32.43340 -64.99129 9656 ft 283 kts 286°
2026-05-07 19:10 32.43917 -65.01354 10392 ft 283 kts 287°
2026-05-07 19:10 32.44502 -65.03615 10870 ft 294 kts 287°
2026-05-07 19:10 32.45120 -65.06005 11140 ft 311 kts 287°
2026-05-07 19:10 32.45766 -65.08516 11431 ft 326 kts 287°
2026-05-07 19:11 32.46436 -65.11119 11942 ft 332 kts 287°
2026-05-07 19:11 32.47112 -65.13749 12583 ft 335 kts 287°
2026-05-07 19:11 32.47793 -65.16402 13186 ft 339 kts 287°
2026-05-07 19:11 32.48481 -65.19087 13761 ft 343 kts 287°
2026-05-07 19:12 32.49188 -65.21802 14374 ft 346 kts 287°
2026-05-07 19:12 32.49891 -65.24507 14974 ft 350 kts 287°
2026-05-07 19:12 32.50609 -65.27275 15576 ft 353 kts 287°
2026-05-07 19:12 32.51343 -65.30072 16170 ft 357 kts 286°
2026-05-07 19:13 32.52074 -65.32893 16730 ft 360 kts 286°
2026-05-07 19:13 32.52807 -65.35746 17280 ft 364 kts 286°
2026-05-07 19:13 32.53545 -65.38628 17817 ft 367 kts 285°
2026-05-07 19:13 32.54287 -65.41541 18338 ft 371 kts 285°
2026-05-07 19:14 32.55033 -65.44476 18887 ft 373 kts 285°
2026-05-07 19:14 32.55782 -65.47428 19416 ft 375 kts 285°
2026-05-07 19:14 32.56535 -65.50402 19930 ft 378 kts 285°
2026-05-07 19:14 32.57293 -65.53400 20426 ft 380 kts 285°
2026-05-07 19:15 32.58063 -65.56449 20899 ft 383 kts 285°
2026-05-07 19:15 32.58831 -65.59487 21370 ft 385 kts 285°
2026-05-07 19:15 32.59600 -65.62531 21830 ft 387 kts 285°
2026-05-07 19:15 32.60384 -65.65602 22263 ft 389 kts 285°
2026-05-07 19:16 32.61173 -65.68678 22708 ft 391 kts 285°
2026-05-07 19:16 32.61966 -65.71774 23124 ft 393 kts 285°
2026-05-07 19:16 32.62761 -65.74884 23530 ft 395 kts 285°
2026-05-07 19:16 32.63559 -65.78010 23909 ft 397 kts 285°
2026-05-07 19:17 32.64358 -65.81151 24285 ft 399 kts 285°
2026-05-07 19:17 32.65161 -65.84310 24640 ft 401 kts 285°
2026-05-07 19:17 32.65965 -65.87478 24979 ft 404 kts 285°
2026-05-07 19:17 32.66778 -65.90687 25345 ft 405 kts 285°
2026-05-07 19:18 32.67591 -65.93899 25700 ft 407 kts 285°
2026-05-07 19:18 32.68406 -65.97127 26009 ft 410 kts 286°
2026-05-07 19:18 32.69226 -66.00377 26355 ft 412 kts 286°
2026-05-07 19:18 32.70053 -66.03638 26682 ft 414 kts 286°
2026-05-07 19:19 32.70895 -66.06915 27013 ft 416 kts 286°
2026-05-07 19:19 32.71737 -66.10206 27299 ft 418 kts 286°
2026-05-07 19:19 32.72582 -66.13523 27611 ft 420 kts 286°
2026-05-07 19:19 32.73428 -66.16851 27918 ft 422 kts 286°
2026-05-07 19:20 32.74275 -66.20192 28216 ft 424 kts 286°
2026-05-07 19:20 32.75125 -66.23555 28511 ft 425 kts 287°
2026-05-07 19:20 32.75977 -66.26931 28798 ft 427 kts 287°
2026-05-07 19:20 32.76830 -66.30318 29078 ft 429 kts 287°
2026-05-07 19:21 32.77676 -66.33682 29352 ft 431 kts 287°
2026-05-07 19:21 32.78545 -66.37146 29626 ft 433 kts 287°
2026-05-07 19:21 32.79405 -66.40577 29892 ft 434 kts 287°
2026-05-07 19:21 32.80257 -66.43982 30154 ft 436 kts 287°
2026-05-07 19:22 32.81117 -66.47422 30624 ft 432 kts 287°
2026-05-07 19:22 32.81965 -66.50820 31132 ft 427 kts 287°
2026-05-07 19:22 32.82807 -66.54199 31555 ft 424 kts 286°
2026-05-07 19:22 32.83643 -66.57559 31960 ft 422 kts 286°
2026-05-07 19:23 32.84476 -66.60914 32075 ft 424 kts 286°
2026-05-07 19:23 32.85313 -66.64286 32089 ft 425 kts 287°
2026-05-07 19:23 32.86975 -66.70994 32090 ft 420 kts 286°
2026-05-07 19:24 32.88619 -66.77648 32092 ft 419 kts 286°
2026-05-07 19:24 32.90261 -66.84310 32087 ft 420 kts 286°
2026-05-07 19:25 32.91901 -66.90983 32086 ft 419 kts 286°
2026-05-07 19:25 32.93525 -66.97605 32084 ft 418 kts 286°
2026-05-07 19:26 32.95151 -67.04256 32083 ft 419 kts 286°
2026-05-07 19:26 32.96786 -67.10955 32081 ft 418 kts 286°
2026-05-07 19:27 32.98391 -67.17552 32078 ft 418 kts 286°
2026-05-07 19:27 33.00003 -67.24196 32075 ft 418 kts 286°
2026-05-07 19:28 33.01615 -67.30853 32073 ft 418 kts 286°
2026-05-07 19:28 33.03224 -67.37515 32071 ft 417 kts 286°
2026-05-07 19:29 33.04823 -67.44152 32069 ft 416 kts 286°
2026-05-07 19:29 33.06418 -67.50793 32067 ft 417 kts 286°
2026-05-07 19:30 33.07740 -67.56310 32065 ft 417 kts 286°
2026-05-07 19:30 33.09330 -67.62956 32063 ft 416 kts 286°
2026-05-07 19:31 33.10914 -67.69597 32062 ft 415 kts 286°
2026-05-07 19:31 33.12506 -67.76235 32059 ft 416 kts 286°
2026-05-07 19:32 33.14090 -67.82866 32056 ft 416 kts 285°
2026-05-07 19:32 33.15659 -67.89510 32054 ft 416 kts 285°
2026-05-07 19:33 33.17214 -67.96125 32051 ft 416 kts 285°
2026-05-07 19:33 33.18770 -68.02767 32049 ft 415 kts 285°
2026-05-07 19:34 33.19754 -68.09506 32047 ft 415 kts 269°
2026-05-07 19:34 33.18610 -68.16270 32045 ft 419 kts 255°
2026-05-07 19:35 33.16787 -68.22845 32042 ft 419 kts 253°
2026-05-07 19:35 33.14866 -68.29435 32039 ft 420 kts 253°
2026-05-07 19:36 33.12923 -68.36003 32037 ft 420 kts 253°
2026-05-07 19:36 33.10965 -68.42554 32035 ft 419 kts 253°
2026-05-07 19:37 33.08997 -68.49099 32033 ft 419 kts 253°
2026-05-07 19:37 33.07048 -68.55655 32031 ft 419 kts 253°
2026-05-07 19:38 33.05085 -68.62209 32029 ft 419 kts 253°
2026-05-07 19:38 33.03114 -68.68754 32027 ft 419 kts 253°
2026-05-07 19:39 33.01136 -68.75291 32025 ft 419 kts 253°
2026-05-07 19:39 32.99155 -68.81817 32023 ft 419 kts 253°
2026-05-07 19:40 32.97168 -68.88344 32023 ft 419 kts 253°
2026-05-07 19:40 32.95179 -68.94864 32021 ft 418 kts 252°
2026-05-07 19:41 32.93200 -69.01331 32020 ft 418 kts 252°
2026-05-07 19:41 32.91206 -69.07832 32017 ft 417 kts 252°
2026-05-07 19:42 32.89213 -69.14316 32016 ft 417 kts 252°
2026-05-07 19:42 32.87217 -69.20793 32014 ft 417 kts 252°
2026-05-07 19:43 32.85220 -69.27265 32012 ft 417 kts 252°
2026-05-07 19:43 32.83217 -69.33738 32010 ft 417 kts 252°
2026-05-07 19:44 32.81208 -69.40218 32008 ft 416 kts 252°
2026-05-07 19:44 32.79196 -69.46693 32006 ft 418 kts 252°
2026-05-07 19:45 32.77183 -69.53157 32003 ft 416 kts 252°
2026-05-07 19:45 32.75183 -69.59566 32001 ft 416 kts 252°
2026-05-07 19:46 32.73167 -69.66015 31999 ft 416 kts 252°
2026-05-07 19:46 32.71146 -69.72465 31997 ft 416 kts 252°
2026-05-07 19:47 32.69125 -69.78904 31995 ft 416 kts 252°
2026-05-07 19:47 32.67099 -69.85345 31993 ft 416 kts 252°
2026-05-07 19:48 32.65068 -69.91786 31992 ft 417 kts 252°
2026-05-07 19:48 32.63030 -69.98237 31990 ft 417 kts 252°
2026-05-07 19:49 32.60991 -70.04678 31988 ft 415 kts 252°
2026-05-07 19:49 32.58975 -70.11033 31983 ft 415 kts 251°
2026-05-07 19:50 32.56940 -70.17434 31981 ft 415 kts 251°
2026-05-07 19:50 32.54903 -70.23831 31979 ft 415 kts 251°
2026-05-07 19:51 32.52859 -70.30234 31978 ft 415 kts 251°
2026-05-07 19:51 32.50816 -70.36621 31976 ft 415 kts 251°
2026-05-07 19:52 32.48765 -70.43022 31981 ft 414 kts 251°
2026-05-07 19:52 32.46731 -70.49357 31993 ft 415 kts 251°
2026-05-07 19:53 32.44674 -70.55749 31996 ft 414 kts 251°
2026-05-07 19:53 32.42621 -70.62117 31992 ft 414 kts 251°
2026-05-07 19:54 32.40565 -70.68481 31990 ft 414 kts 251°
2026-05-07 19:54 32.38508 -70.74834 31988 ft 413 kts 251°
2026-05-07 19:55 32.36448 -70.81184 31987 ft 413 kts 251°
2026-05-07 19:55 32.34392 -70.87512 31983 ft 412 kts 251°
2026-05-07 19:56 32.32326 -70.93855 31976 ft 412 kts 251°
2026-05-07 19:56 32.30277 -71.00134 31974 ft 411 kts 251°
2026-05-07 19:57 32.28200 -71.06489 31972 ft 412 kts 251°
2026-05-07 19:57 32.26135 -71.12792 31970 ft 411 kts 251°
2026-05-07 19:58 32.24069 -71.19085 31973 ft 411 kts 251°
2026-05-07 19:58 32.22001 -71.25374 31973 ft 411 kts 252°
2026-05-07 19:59 32.19943 -71.31620 31971 ft 410 kts 252°
2026-05-07 19:59 32.17871 -71.37898 31970 ft 410 kts 251°
2026-05-07 20:00 32.15803 -71.44176 31969 ft 409 kts 252°
2026-05-07 20:00 32.13739 -71.50444 31967 ft 409 kts 252°
2026-05-07 20:01 32.11658 -71.56708 31966 ft 410 kts 252°
2026-05-07 20:01 32.09574 -71.62958 31965 ft 410 kts 251°
2026-05-07 20:02 32.07483 -71.69210 31963 ft 409 kts 251°
2026-05-07 20:02 32.05428 -71.75466 31962 ft 408 kts 254°
2026-05-07 20:03 32.04163 -71.81906 31961 ft 405 kts 263°
2026-05-07 20:03 32.03387 -71.88478 31960 ft 405 kts 264°
2026-05-07 20:04 32.02634 -71.95051 31960 ft 405 kts 264°
2026-05-07 20:04 32.01880 -72.01634 31957 ft 405 kts 264°
2026-05-07 20:05 32.01124 -72.08207 31952 ft 405 kts 264°
2026-05-07 20:05 32.00366 -72.14776 31946 ft 405 kts 264°
2026-05-07 20:06 31.99621 -72.21347 31944 ft 405 kts 264°
2026-05-07 20:06 31.98887 -72.27879 31942 ft 405 kts 264°
2026-05-07 20:07 31.98139 -72.34450 31939 ft 405 kts 264°
2026-05-07 20:07 31.97384 -72.41028 31938 ft 406 kts 264°
2026-05-07 20:08 31.96621 -72.47615 31937 ft 406 kts 264°
2026-05-07 20:08 31.95854 -72.54202 31936 ft 406 kts 264°
2026-05-07 20:09 31.95083 -72.60785 31935 ft 406 kts 264°
2026-05-07 20:10 31.93924 -72.70620 31934 ft 406 kts 264°
2026-05-07 20:10 31.93144 -72.77205 31933 ft 406 kts 263°
2026-05-07 20:11 31.92491 -72.82686 31932 ft 406 kts 263°
2026-05-07 20:11 31.91575 -72.90353 31931 ft 406 kts 263°
2026-05-07 20:12 31.90783 -72.96937 31930 ft 406 kts 263°
2026-05-07 20:12 31.90117 -73.02456 31929 ft 406 kts 263°
2026-05-07 20:13 31.89325 -73.09002 31928 ft 406 kts 263°
2026-05-07 20:13 31.88523 -73.15590 31928 ft 406 kts 263°
2026-05-07 20:14 31.87718 -73.22178 31927 ft 406 kts 263°
2026-05-07 20:14 31.86910 -73.28754 31926 ft 406 kts 263°
2026-05-07 20:15 31.86109 -73.35257 31925 ft 406 kts 263°
2026-05-07 20:15 31.85287 -73.41898 31925 ft 405 kts 263°
2026-05-07 20:16 31.84484 -73.48417 31924 ft 405 kts 263°
2026-05-07 20:16 31.83680 -73.54965 31923 ft 405 kts 263°
2026-05-07 20:17 31.82859 -73.61508 31908 ft 404 kts 263°
2026-05-07 20:17 31.82032 -73.68036 31893 ft 403 kts 262°
2026-05-07 20:18 31.81198 -73.74572 31888 ft 403 kts 262°
2026-05-07 20:18 31.80364 -73.81097 31889 ft 403 kts 262°
2026-05-07 20:19 31.79529 -73.87617 31889 ft 402 kts 262°
2026-05-07 20:19 31.78692 -73.94092 31889 ft 402 kts 262°
2026-05-07 20:20 31.77847 -74.00589 31889 ft 402 kts 262°
2026-05-07 20:20 31.77139 -74.06001 31889 ft 402 kts 262°
2026-05-07 20:21 31.76123 -74.13729 31891 ft 402 kts 262°
2026-05-07 20:21 31.75263 -74.20237 31891 ft 402 kts 262°
2026-05-07 20:22 31.74413 -74.26737 31892 ft 403 kts 262°
2026-05-07 20:22 31.73572 -74.33259 31892 ft 404 kts 262°
2026-05-07 20:23 31.72723 -74.39772 31892 ft 403 kts 262°
2026-05-07 20:23 31.71864 -74.46294 31892 ft 404 kts 262°
2026-05-07 20:24 31.71007 -74.52768 31892 ft 404 kts 262°
2026-05-07 20:24 31.70140 -74.59279 31890 ft 404 kts 262°
2026-05-07 20:25 31.69267 -74.65797 31888 ft 404 kts 263°
2026-05-07 20:25 31.68390 -74.72316 31888 ft 404 kts 262°
2026-05-07 20:26 31.67509 -74.78837 31888 ft 405 kts 262°
2026-05-07 20:26 31.66622 -74.85378 31888 ft 405 kts 262°
2026-05-07 20:27 31.65734 -74.91895 31888 ft 404 kts 262°
2026-05-07 20:27 31.64844 -74.98410 31892 ft 404 kts 262°
2026-05-07 20:28 31.63949 -75.04928 31892 ft 404 kts 263°
2026-05-07 20:28 31.63048 -75.11459 31892 ft 404 kts 263°
2026-05-07 20:29 31.62153 -75.17933 31891 ft 404 kts 263°
2026-05-07 20:29 31.61250 -75.24431 31892 ft 404 kts 263°
2026-05-07 20:30 31.60343 -75.30937 31892 ft 404 kts 263°
2026-05-07 20:30 31.59434 -75.37436 31880 ft 403 kts 263°
2026-05-07 20:31 31.58524 -75.43912 31869 ft 403 kts 263°
2026-05-07 20:31 31.57608 -75.50405 31870 ft 403 kts 263°
2026-05-07 20:32 31.56697 -75.56842 31871 ft 403 kts 262°
2026-05-07 20:32 31.55776 -75.63321 31869 ft 402 kts 262°
2026-05-07 20:33 31.54855 -75.69785 31857 ft 402 kts 262°
2026-05-07 20:33 31.53930 -75.76245 31854 ft 402 kts 262°
2026-05-07 20:34 31.53002 -75.82704 31857 ft 402 kts 262°
2026-05-07 20:34 31.52070 -75.89165 31866 ft 402 kts 262°
2026-05-07 20:35 31.51143 -75.95572 31867 ft 402 kts 262°
2026-05-07 20:35 31.50204 -76.02034 31857 ft 401 kts 262°
2026-05-07 20:36 31.49266 -76.08479 31849 ft 401 kts 262°
2026-05-07 20:36 31.48323 -76.14923 31851 ft 401 kts 262°
2026-05-07 20:37 31.47375 -76.21377 31850 ft 401 kts 262°
2026-05-07 20:37 31.46432 -76.27775 31850 ft 401 kts 262°
2026-05-07 20:38 31.45479 -76.34216 31850 ft 401 kts 262°
2026-05-07 20:38 31.44522 -76.40661 31850 ft 401 kts 262°
2026-05-07 20:39 31.43563 -76.47096 31850 ft 401 kts 262°
2026-05-07 20:39 31.42600 -76.53538 31847 ft 401 kts 262°
2026-05-07 20:40 31.41635 -76.59972 31847 ft 401 kts 262°
2026-05-07 20:40 31.40680 -76.66412 31848 ft 401 kts 262°
2026-05-07 20:41 31.39722 -76.72806 31849 ft 401 kts 262°
2026-05-07 20:41 31.38744 -76.79243 31849 ft 401 kts 262°
2026-05-07 20:42 31.37759 -76.85674 31848 ft 402 kts 262°
2026-05-07 20:42 31.36773 -76.92092 31849 ft 401 kts 262°
2026-05-07 20:43 31.35784 -76.98523 31849 ft 401 kts 262°
2026-05-07 20:43 31.34997 -77.04976 31854 ft 400 kts 266°
2026-05-07 20:44 31.34439 -77.11445 31863 ft 399 kts 266°
2026-05-07 20:44 31.33874 -77.17858 31864 ft 399 kts 266°
2026-05-07 20:45 31.33290 -77.24311 31864 ft 398 kts 266°
2026-05-07 20:45 31.32697 -77.30758 31871 ft 398 kts 266°
2026-05-07 20:46 31.32096 -77.37197 31874 ft 398 kts 266°
2026-05-07 20:46 31.31508 -77.43639 31873 ft 398 kts 266°
2026-05-07 20:47 31.30923 -77.50079 31880 ft 398 kts 266°
2026-05-07 20:47 31.30329 -77.56508 31889 ft 397 kts 266°
2026-05-07 20:48 31.29732 -77.62900 31898 ft 397 kts 265°
2026-05-07 20:48 31.29126 -77.69312 31890 ft 397 kts 265°
2026-05-07 20:49 31.28615 -77.74687 31889 ft 397 kts 265°
2026-05-07 20:49 31.28001 -77.81100 31889 ft 397 kts 265°
2026-05-07 20:50 31.27382 -77.87525 31890 ft 397 kts 265°
2026-05-07 20:50 31.26761 -77.93937 31892 ft 397 kts 265°
2026-05-07 20:51 31.26141 -78.00301 31894 ft 397 kts 265°
2026-05-07 20:51 31.25516 -78.06678 31895 ft 394 kts 265°
2026-05-07 20:52 31.24888 -78.13055 31894 ft 394 kts 265°
2026-05-07 20:52 31.24257 -78.19421 31894 ft 394 kts 265°
2026-05-07 20:53 31.23624 -78.25786 31895 ft 394 kts 265°
2026-05-07 20:53 31.22986 -78.32158 31895 ft 394 kts 265°
2026-05-07 20:54 31.22346 -78.38518 31895 ft 394 kts 265°
2026-05-07 20:54 31.21703 -78.44886 31897 ft 394 kts 265°
2026-05-07 20:55 31.21061 -78.51205 31900 ft 393 kts 265°
2026-05-07 20:55 31.20414 -78.57547 31901 ft 393 kts 265°
2026-05-07 20:56 31.19763 -78.63893 31901 ft 393 kts 265°
2026-05-07 20:56 31.19108 -78.70245 31902 ft 393 kts 265°
2026-05-07 20:57 31.18452 -78.76585 31902 ft 393 kts 265°
2026-05-07 20:57 31.17791 -78.82930 31903 ft 393 kts 265°
2026-05-07 20:58 31.17129 -78.89260 31908 ft 393 kts 265°
2026-05-07 20:58 31.16462 -78.95606 31917 ft 393 kts 265°
2026-05-07 20:59 31.15795 -79.01920 31921 ft 392 kts 265°
2026-05-07 20:59 31.15126 -79.08225 31922 ft 392 kts 264°
2026-05-07 21:00 31.14452 -79.14542 31922 ft 392 kts 264°
2026-05-07 21:00 31.13776 -79.20857 31923 ft 392 kts 264°
2026-05-07 21:01 31.13101 -79.27125 31923 ft 392 kts 264°
2026-05-07 21:01 31.12418 -79.33441 31923 ft 392 kts 264°
2026-05-07 21:02 31.11734 -79.39746 31923 ft 391 kts 264°
2026-05-07 21:02 31.11046 -79.46045 31930 ft 391 kts 264°
2026-05-07 21:03 31.10355 -79.52350 31936 ft 391 kts 264°
2026-05-07 21:03 31.09661 -79.58651 31937 ft 391 kts 264°
2026-05-07 21:04 31.08967 -79.64917 31937 ft 391 kts 264°
2026-05-07 21:04 31.08268 -79.71213 31938 ft 391 kts 264°
2026-05-07 21:05 31.07566 -79.77499 31938 ft 391 kts 264°
2026-05-07 21:05 31.06860 -79.83791 31938 ft 391 kts 264°
2026-05-07 21:06 31.06150 -79.90094 31929 ft 391 kts 264°
2026-05-07 21:06 31.05439 -79.96385 31922 ft 391 kts 264°
2026-05-07 21:07 31.04730 -80.02625 31922 ft 389 kts 264°
2026-05-07 21:07 31.04015 -80.08883 31926 ft 389 kts 264°
2026-05-07 21:08 31.03300 -80.15127 31926 ft 389 kts 263°
2026-05-07 21:08 31.02580 -80.21377 31926 ft 389 kts 263°
2026-05-07 21:09 31.01857 -80.27626 31927 ft 389 kts 263°
2026-05-07 21:09 31.01132 -80.33873 31927 ft 389 kts 263°
2026-05-07 21:10 31.00403 -80.40118 31927 ft 388 kts 263°
2026-05-07 21:10 30.99674 -80.46343 31928 ft 388 kts 263°
2026-05-07 21:11 30.98945 -80.52538 31928 ft 388 kts 263°
2026-05-07 21:11 30.97841 -80.61880 31927 ft 388 kts 263°
2026-05-07 21:12 30.97101 -80.68097 31927 ft 388 kts 263°
2026-05-07 21:12 30.96358 -80.74325 31927 ft 387 kts 263°
2026-05-07 21:13 30.95613 -80.80535 31927 ft 387 kts 263°
2026-05-07 21:13 30.94867 -80.86741 31927 ft 386 kts 263°
2026-05-07 21:14 30.94122 -80.92900 31927 ft 386 kts 263°
2026-05-07 21:14 30.93370 -80.99100 31927 ft 386 kts 263°
2026-05-07 21:15 30.92614 -81.05304 31928 ft 386 kts 263°
2026-05-07 21:15 30.91856 -81.11496 31927 ft 386 kts 263°
2026-05-07 21:16 30.91098 -81.17677 31926 ft 385 kts 263°
2026-05-07 21:16 30.90334 -81.23864 31927 ft 385 kts 263°
2026-05-07 21:17 30.89574 -81.30003 31927 ft 385 kts 263°
2026-05-07 21:17 30.88806 -81.36175 31929 ft 385 kts 263°
2026-05-07 21:18 30.88036 -81.42351 31933 ft 385 kts 263°
2026-05-07 21:18 30.87262 -81.48526 31936 ft 385 kts 263°
2026-05-07 21:19 30.86485 -81.54699 31933 ft 385 kts 263°
2026-05-07 21:19 30.85706 -81.60869 31933 ft 385 kts 263°
2026-05-07 21:20 30.84923 -81.67044 31934 ft 385 kts 262°
2026-05-07 21:20 30.84143 -81.73173 31938 ft 385 kts 262°
2026-05-07 21:21 30.83354 -81.79341 31935 ft 385 kts 262°
2026-05-07 21:21 30.82564 -81.85506 31935 ft 385 kts 262°
2026-05-07 21:22 30.81771 -81.91665 31939 ft 385 kts 262°
2026-05-07 21:22 30.80975 -81.97822 31941 ft 385 kts 262°
2026-05-07 21:23 30.80177 -82.03973 31942 ft 384 kts 262°
2026-05-07 21:23 30.79399 -82.10076 31945 ft 384 kts 265°
2026-05-07 21:24 30.79547 -82.13169 31957 ft 385 kts 281°
2026-05-07 21:24 30.80368 -82.16161 31956 ft 390 kts 291°
2026-05-07 21:24 30.82911 -82.21778 31954 ft 393 kts 294°
2026-05-07 21:25 30.85555 -82.27342 31954 ft 392 kts 294°
2026-05-07 21:25 30.88201 -82.32895 31953 ft 392 kts 294°
2026-05-07 21:26 30.90850 -82.38448 31952 ft 392 kts 294°
2026-05-07 21:26 30.93522 -82.44010 31959 ft 393 kts 294°
2026-05-07 21:27 30.96194 -82.49515 31965 ft 393 kts 294°
2026-05-07 21:27 30.98885 -82.55048 31967 ft 393 kts 294°
2026-05-07 21:28 31.01582 -82.60586 31970 ft 393 kts 294°
2026-05-07 21:28 31.04308 -82.66162 31973 ft 393 kts 294°
2026-05-07 21:29 31.07015 -82.71671 31978 ft 393 kts 294°
2026-05-07 21:29 31.09744 -82.77204 31979 ft 392 kts 294°
2026-05-07 21:30 31.12476 -82.82730 31978 ft 393 kts 294°
2026-05-07 21:30 31.14746 -82.87316 31976 ft 393 kts 294°
2026-05-07 21:31 31.17492 -82.92839 31975 ft 393 kts 294°
2026-05-07 21:31 31.20250 -82.98368 31974 ft 393 kts 294°
2026-05-07 21:32 31.23004 -83.03881 31973 ft 393 kts 294°
2026-05-07 21:32 31.25771 -83.09406 31973 ft 393 kts 295°
2026-05-07 21:33 31.28541 -83.14918 31974 ft 393 kts 295°
2026-05-07 21:33 31.31327 -83.20425 31976 ft 393 kts 295°
2026-05-07 21:34 31.34086 -83.25905 31982 ft 391 kts 291°
2026-05-07 21:34 31.34845 -83.28888 31991 ft 381 kts 271°
2026-05-07 21:34 31.34807 -83.31972 31987 ft 379 kts 263°
2026-05-07 21:35 31.34280 -83.38127 31984 ft 379 kts 262°
2026-05-07 21:35 31.33635 -83.44247 31986 ft 379 kts 262°
2026-05-07 21:36 31.32985 -83.50367 31988 ft 379 kts 262°
2026-05-07 21:36 31.32331 -83.56483 31988 ft 379 kts 262°
2026-05-07 21:37 31.31677 -83.62561 31987 ft 379 kts 262°
2026-05-07 21:37 31.31016 -83.68682 31987 ft 379 kts 262°
2026-05-07 21:38 31.30356 -83.74802 31988 ft 379 kts 262°
2026-05-07 21:38 31.29715 -83.80913 31988 ft 378 kts 262°
2026-05-07 21:39 31.29067 -83.87008 31990 ft 378 kts 262°
2026-05-07 21:39 31.28413 -83.93102 31988 ft 378 kts 262°
2026-05-07 21:40 31.27753 -83.99200 31986 ft 378 kts 262°
2026-05-07 21:40 31.27096 -84.05244 31985 ft 377 kts 262°
2026-05-07 21:41 31.26429 -84.11329 31983 ft 377 kts 262°
2026-05-07 21:41 31.25760 -84.17401 31982 ft 376 kts 262°
2026-05-07 21:42 31.25093 -84.23430 31980 ft 376 kts 262°
2026-05-07 21:42 31.24421 -84.29477 31980 ft 376 kts 262°
2026-05-07 21:43 31.23201 -84.35403 31982 ft 375 kts 258°
2026-05-07 21:43 31.22533 -84.41459 31982 ft 376 kts 264°
2026-05-07 21:44 31.22045 -84.47537 31983 ft 376 kts 263°
2026-05-07 21:44 31.21486 -84.53606 31984 ft 376 kts 262°
2026-05-07 21:45 31.20877 -84.59678 31986 ft 375 kts 262°
2026-05-07 21:45 31.20243 -84.65682 31985 ft 374 kts 262°
2026-05-07 21:46 31.19584 -84.71716 31984 ft 374 kts 262°
2026-05-07 21:46 31.18910 -84.77752 31983 ft 374 kts 262°
2026-05-07 21:47 31.18223 -84.83819 31982 ft 374 kts 262°
2026-05-07 21:47 31.17537 -84.89803 31982 ft 374 kts 262°
2026-05-07 21:48 31.16842 -84.95811 31984 ft 373 kts 261°
2026-05-07 21:48 31.16142 -85.01822 31985 ft 373 kts 261°
2026-05-07 21:49 31.15439 -85.07826 31985 ft 373 kts 261°
2026-05-07 21:49 31.14733 -85.13823 31987 ft 373 kts 261°
2026-05-07 21:50 31.14024 -85.19813 31988 ft 372 kts 261°
2026-05-07 21:50 31.13312 -85.25800 31990 ft 372 kts 261°
2026-05-07 21:51 31.12599 -85.31774 31993 ft 372 kts 261°
2026-05-07 21:51 31.11884 -85.37746 31995 ft 371 kts 261°
2026-05-07 21:52 31.11165 -85.43714 31997 ft 371 kts 261°
2026-05-07 21:52 31.10445 -85.49675 31989 ft 371 kts 261°
2026-05-07 21:53 31.09722 -85.55635 31981 ft 371 kts 261°
2026-05-07 21:53 31.09001 -85.61558 31976 ft 370 kts 261°
2026-05-07 21:54 31.08269 -85.67538 31968 ft 370 kts 261°
2026-05-07 21:54 31.07540 -85.73481 31959 ft 370 kts 261°
2026-05-07 21:55 31.06808 -85.79418 31967 ft 370 kts 261°
2026-05-07 21:55 31.06079 -85.85308 31974 ft 370 kts 261°
2026-05-07 21:56 31.05336 -85.91290 31977 ft 370 kts 261°
2026-05-07 21:56 31.04601 -85.97187 31987 ft 370 kts 261°
2026-05-07 21:57 31.03859 -86.03118 31992 ft 368 kts 261°
2026-05-07 21:57 31.03118 -86.09016 31994 ft 367 kts 261°
2026-05-07 21:58 31.02374 -86.14915 31997 ft 368 kts 261°
2026-05-07 21:58 31.01625 -86.20836 31999 ft 369 kts 261°
2026-05-07 21:59 31.00874 -86.26745 32000 ft 368 kts 261°
2026-05-07 21:59 31.00121 -86.32654 32000 ft 368 kts 261°
2026-05-07 22:00 30.99365 -86.38559 32000 ft 368 kts 261°
2026-05-07 22:00 30.98607 -86.44459 32001 ft 368 kts 261°
2026-05-07 22:01 30.97845 -86.50367 32003 ft 368 kts 261°
2026-05-07 22:01 30.97085 -86.56243 32003 ft 368 kts 261°
2026-05-07 22:02 30.96318 -86.62146 32003 ft 368 kts 261°
2026-05-07 22:02 30.95549 -86.68052 32002 ft 368 kts 261°
2026-05-07 22:03 30.94777 -86.73950 32000 ft 368 kts 261°
2026-05-07 22:03 30.94003 -86.79845 31997 ft 368 kts 261°
2026-05-07 22:04 30.93227 -86.85732 31995 ft 368 kts 260°
2026-05-07 22:04 30.92453 -86.91586 31992 ft 368 kts 260°
2026-05-07 22:05 30.91670 -86.97486 31988 ft 368 kts 260°
2026-05-07 22:05 30.90886 -87.03377 31985 ft 368 kts 260°
2026-05-07 22:06 30.90097 -87.09274 31984 ft 368 kts 260°
2026-05-07 22:06 30.89308 -87.15157 31984 ft 368 kts 260°
2026-05-07 22:07 30.88521 -87.21005 31985 ft 368 kts 260°
2026-05-07 22:07 30.87722 -87.26925 31985 ft 368 kts 260°
2026-05-07 22:08 30.86924 -87.32812 31988 ft 368 kts 260°
2026-05-07 22:08 30.86130 -87.38652 31990 ft 368 kts 260°
2026-05-07 22:09 30.85328 -87.44537 31992 ft 368 kts 260°
2026-05-07 22:09 30.84521 -87.50427 31995 ft 369 kts 260°
2026-05-07 22:10 30.83711 -87.56322 31996 ft 369 kts 260°
2026-05-07 22:10 30.82904 -87.62175 31996 ft 368 kts 260°
2026-05-07 22:11 30.82088 -87.68073 31998 ft 368 kts 260°
2026-05-07 22:11 30.81410 -87.72961 31998 ft 368 kts 260°
2026-05-07 22:12 30.80591 -87.78851 32002 ft 368 kts 260°
2026-05-07 22:12 30.79770 -87.84733 32005 ft 368 kts 260°
2026-05-07 22:13 30.78947 -87.90615 32009 ft 368 kts 260°
2026-05-07 22:13 30.78121 -87.96497 32008 ft 368 kts 260°
2026-05-07 22:14 30.77317 -88.02388 32009 ft 368 kts 260°
2026-05-07 22:14 30.76509 -88.08269 32010 ft 368 kts 260°
2026-05-07 22:15 30.75751 -88.13675 32010 ft 368 kts 260°
2026-05-07 22:15 30.74919 -88.19549 32010 ft 368 kts 259°
2026-05-07 22:16 30.74083 -88.25430 32010 ft 368 kts 259°
2026-05-07 22:16 30.73254 -88.31261 32009 ft 368 kts 260°
2026-05-07 22:17 30.72201 -88.37076 32009 ft 368 kts 253°
2026-05-07 22:17 30.70592 -88.42733 32006 ft 369 kts 252°
2026-05-07 22:18 30.68112 -88.51203 32002 ft 369 kts 252°
2026-05-07 22:19 30.66453 -88.56846 31998 ft 369 kts 252°
2026-05-07 22:19 30.64791 -88.62482 31993 ft 369 kts 252°
2026-05-07 22:20 30.63128 -88.68111 31991 ft 368 kts 252°
2026-05-07 22:20 30.61466 -88.73734 31988 ft 368 kts 252°
2026-05-07 22:21 30.59834 -88.79317 31985 ft 368 kts 252°
2026-05-07 22:21 30.58182 -88.84937 31981 ft 368 kts 252°
2026-05-07 22:22 30.56522 -88.90555 31978 ft 368 kts 252°
2026-05-07 22:22 30.54858 -88.96169 31980 ft 369 kts 252°
2026-05-07 22:23 30.53185 -89.01801 31982 ft 369 kts 251°
2026-05-07 22:23 30.51525 -89.07428 31985 ft 369 kts 252°
2026-05-07 22:24 30.49864 -89.13015 31990 ft 368 kts 251°
2026-05-07 22:24 30.48183 -89.18633 31991 ft 368 kts 251°
2026-05-07 22:25 30.46497 -89.24245 31992 ft 369 kts 251°
2026-05-07 22:25 30.44803 -89.29872 31992 ft 369 kts 251°
2026-05-07 22:26 30.43108 -89.35498 31991 ft 369 kts 251°
2026-05-07 22:26 30.41418 -89.41118 31991 ft 369 kts 251°
2026-05-07 22:27 30.39734 -89.46706 31990 ft 370 kts 251°
2026-05-07 22:27 30.38033 -89.52336 31990 ft 370 kts 251°
2026-05-07 22:28 30.36329 -89.57967 31991 ft 370 kts 251°
2026-05-07 22:28 30.34621 -89.63596 31992 ft 371 kts 251°
2026-05-07 22:29 30.32906 -89.69237 31991 ft 371 kts 251°
2026-05-07 22:29 30.31191 -89.74869 31991 ft 372 kts 251°
2026-05-07 22:30 30.29485 -89.80532 31991 ft 372 kts 251°
2026-05-07 22:30 30.27789 -89.86153 31992 ft 372 kts 251°
2026-05-07 22:31 30.26078 -89.91801 31995 ft 372 kts 251°
2026-05-07 22:31 30.24369 -89.97424 31999 ft 372 kts 251°
2026-05-07 22:32 30.22630 -90.03127 32003 ft 372 kts 251°
2026-05-07 22:32 30.20918 -90.08728 32005 ft 372 kts 251°
2026-05-07 22:33 30.19191 -90.14366 32006 ft 372 kts 251°
2026-05-07 22:33 30.17462 -90.20002 32006 ft 372 kts 251°
2026-05-07 22:34 30.15729 -90.25637 32005 ft 372 kts 251°
2026-05-07 22:34 30.13995 -90.31268 32003 ft 372 kts 251°
2026-05-07 22:35 30.12258 -90.36897 32004 ft 372 kts 250°
2026-05-07 22:35 30.10521 -90.42517 32004 ft 372 kts 250°
2026-05-07 22:36 30.08795 -90.48091 32007 ft 371 kts 250°
2026-05-07 22:36 30.07055 -90.53699 32009 ft 371 kts 250°
2026-05-07 22:37 30.05314 -90.59303 32010 ft 371 kts 250°
2026-05-07 22:37 30.03571 -90.64902 32011 ft 370 kts 250°
2026-05-07 22:38 30.01825 -90.70500 32014 ft 370 kts 250°
2026-05-07 22:38 30.00082 -90.76081 32020 ft 370 kts 250°
2026-05-07 22:39 29.98322 -90.81707 32013 ft 375 kts 250°
2026-05-07 22:39 29.96543 -90.87383 32014 ft 375 kts 250°
2026-05-07 22:40 29.94765 -90.93047 32015 ft 376 kts 250°
2026-05-07 22:40 29.92994 -90.98677 32016 ft 376 kts 250°
2026-05-07 22:41 29.91207 -91.04349 32017 ft 376 kts 250°
2026-05-07 22:41 29.89420 -91.10012 32018 ft 376 kts 249°
2026-05-07 22:42 29.87630 -91.15673 32018 ft 376 kts 249°
2026-05-07 22:42 29.85840 -91.21327 32019 ft 376 kts 249°
2026-05-07 22:43 29.84048 -91.26975 32019 ft 375 kts 249°
2026-05-07 22:43 29.82268 -91.32577 32020 ft 375 kts 249°
2026-05-07 22:44 29.80473 -91.38217 32020 ft 375 kts 249°
2026-05-07 22:44 29.78675 -91.43856 32019 ft 375 kts 249°
2026-05-07 22:45 29.76878 -91.49486 32019 ft 375 kts 249°
2026-05-07 22:45 29.75077 -91.55115 32018 ft 374 kts 249°
2026-05-07 22:46 29.73280 -91.60724 32018 ft 374 kts 249°
2026-05-07 22:46 29.71478 -91.66336 32016 ft 374 kts 249°
2026-05-07 22:47 29.69688 -91.71905 32015 ft 374 kts 249°
2026-05-07 22:47 29.67883 -91.77512 32014 ft 374 kts 249°
2026-05-07 22:48 29.66076 -91.83116 32015 ft 373 kts 249°
2026-05-07 22:48 29.64262 -91.88729 32013 ft 374 kts 249°
2026-05-07 22:49 29.62464 -91.94288 32012 ft 374 kts 249°
2026-05-07 22:49 29.60649 -91.99886 32011 ft 374 kts 249°
2026-05-07 22:50 29.58832 -92.05481 32013 ft 373 kts 249°
2026-05-07 22:50 29.57015 -92.11073 32012 ft 373 kts 249°
2026-05-07 22:51 29.55207 -92.16673 32009 ft 373 kts 249°
2026-05-07 22:51 29.53386 -92.22265 32009 ft 374 kts 249°
2026-05-07 22:52 29.51553 -92.27862 32011 ft 374 kts 249°
2026-05-07 22:52 29.49715 -92.33461 32009 ft 374 kts 249°
2026-05-07 22:53 29.47876 -92.39054 32009 ft 374 kts 249°
2026-05-07 22:53 29.46323 -92.44718 32009 ft 376 kts 258°
2026-05-07 22:54 29.46082 -92.50761 32011 ft 381 kts 267°
2026-05-07 22:54 29.46267 -92.56858 32012 ft 382 kts 268°
2026-05-07 22:55 29.46461 -92.61918 32012 ft 382 kts 268°
2026-05-07 22:55 29.46756 -92.69003 32012 ft 382 kts 268°
2026-05-07 22:56 29.46996 -92.74080 32013 ft 382 kts 269°
2026-05-07 22:56 29.47281 -92.80165 32013 ft 382 kts 269°
2026-05-07 22:57 29.47554 -92.86261 32012 ft 382 kts 268°
2026-05-07 22:57 29.47821 -92.92355 32015 ft 383 kts 268°
2026-05-07 22:58 29.48084 -92.98465 32015 ft 383 kts 268°
2026-05-07 22:58 29.48347 -93.04567 32015 ft 383 kts 268°
2026-05-07 22:59 29.48600 -93.10663 32015 ft 383 kts 268°
2026-05-07 22:59 29.48842 -93.16771 32016 ft 383 kts 268°
2026-05-07 23:00 29.49078 -93.22859 32016 ft 382 kts 268°
2026-05-07 23:00 29.49311 -93.28937 32016 ft 381 kts 268°
2026-05-07 23:00 29.49426 -93.31969 31793 ft 379 kts 268°
2026-05-07 23:01 29.49540 -93.34976 31544 ft 376 kts 268°
2026-05-07 23:01 29.49652 -93.37965 31293 ft 373 kts 268°
2026-05-07 23:01 29.49762 -93.40928 31042 ft 371 kts 268°
2026-05-07 23:01 29.49873 -93.43880 30792 ft 369 kts 268°
2026-05-07 23:02 29.49982 -93.46822 30542 ft 368 kts 268°
2026-05-07 23:02 29.50101 -93.49754 30291 ft 366 kts 269°
2026-05-07 23:02 29.50218 -93.52674 30040 ft 365 kts 268°
2026-05-07 23:02 29.50331 -93.55574 29790 ft 364 kts 268°
2026-05-07 23:03 29.50444 -93.58472 29539 ft 363 kts 269°
2026-05-07 23:03 29.50560 -93.61317 29292 ft 361 kts 269°
2026-05-07 23:03 29.50673 -93.64202 29026 ft 359 kts 269°
2026-05-07 23:03 29.50780 -93.67046 28612 ft 354 kts 269°
2026-05-07 23:04 29.50883 -93.69861 28165 ft 352 kts 269°
2026-05-07 23:04 29.50983 -93.72659 27718 ft 349 kts 269°
2026-05-07 23:04 29.51080 -93.75436 27272 ft 346 kts 269°
2026-05-07 23:04 29.51176 -93.78186 26830 ft 344 kts 269°
2026-05-07 23:05 29.51270 -93.80929 26389 ft 342 kts 269°
2026-05-07 23:05 29.51363 -93.83645 25954 ft 339 kts 269°
2026-05-07 23:05 29.51455 -93.86340 25520 ft 337 kts 269°
2026-05-07 23:05 29.51546 -93.89032 25086 ft 335 kts 269°
2026-05-07 23:06 29.51636 -93.91695 24654 ft 333 kts 269°
2026-05-07 23:06 29.51726 -93.94339 24224 ft 331 kts 270°
2026-05-07 23:06 29.51823 -93.96972 23796 ft 329 kts 270°
2026-05-07 23:06 29.51919 -93.99564 23375 ft 327 kts 270°
2026-05-07 23:07 29.52013 -94.02196 22943 ft 325 kts 269°
2026-05-07 23:07 29.52102 -94.04758 22523 ft 324 kts 269°
2026-05-07 23:07 29.52190 -94.07331 22098 ft 322 kts 269°
2026-05-07 23:07 29.52276 -94.09894 21677 ft 320 kts 269°
2026-05-07 23:08 29.52360 -94.12439 21259 ft 319 kts 269°
2026-05-07 23:08 29.52443 -94.14975 20845 ft 317 kts 268°
2026-05-07 23:08 29.52524 -94.17496 20434 ft 315 kts 268°
2026-05-07 23:08 29.52605 -94.20004 20026 ft 313 kts 268°
2026-05-07 23:09 29.52686 -94.22506 19618 ft 312 kts 268°
2026-05-07 23:09 29.52766 -94.24990 19214 ft 311 kts 268°
2026-05-07 23:09 29.52876 -94.27467 18810 ft 311 kts 272°
2026-05-07 23:09 29.53328 -94.29913 18384 ft 316 kts 282°
2026-05-07 23:10 29.54132 -94.32292 17891 ft 322 kts 287°
2026-05-07 23:10 29.55078 -94.34627 17453 ft 323 kts 289°
2026-05-07 23:10 29.56067 -94.36936 17053 ft 321 kts 289°
2026-05-07 23:10 29.57051 -94.39232 16749 ft 317 kts 290°
2026-05-07 23:11 29.58006 -94.41461 16432 ft 313 kts 290°
2026-05-07 23:11 29.58965 -94.43704 16064 ft 312 kts 290°
2026-05-07 23:11 29.59920 -94.45935 15696 ft 310 kts 290°
2026-05-07 23:11 29.60870 -94.48156 15328 ft 309 kts 291°
2026-05-07 23:12 29.61817 -94.50373 14949 ft 308 kts 291°
2026-05-07 23:12 29.62768 -94.52575 14658 ft 307 kts 291°
2026-05-07 23:12 29.63714 -94.54773 14369 ft 307 kts 292°
2026-05-07 23:12 29.64659 -94.56974 14080 ft 308 kts 292°
2026-05-07 23:13 29.65608 -94.59191 13781 ft 310 kts 292°
2026-05-07 23:13 29.66558 -94.61416 13483 ft 310 kts 292°
2026-05-07 23:13 29.67508 -94.63640 13184 ft 309 kts 293°
2026-05-07 23:13 29.68453 -94.65854 12882 ft 308 kts 293°
2026-05-07 23:14 29.69393 -94.68055 12582 ft 307 kts 293°
2026-05-07 23:14 29.70333 -94.70259 12286 ft 306 kts 293°
2026-05-07 23:14 29.71259 -94.72431 11979 ft 307 kts 294°
2026-05-07 23:14 29.72201 -94.74634 11692 ft 306 kts 294°
2026-05-07 23:15 29.73135 -94.76825 11409 ft 303 kts 294°
2026-05-07 23:15 29.74047 -94.78971 11130 ft 300 kts 294°
2026-05-07 23:15 29.74957 -94.81112 10849 ft 296 kts 294°
2026-05-07 23:15 29.75860 -94.83236 10570 ft 293 kts 294°
2026-05-07 23:16 29.76741 -94.85313 10297 ft 291 kts 294°
2026-05-07 23:16 29.77630 -94.87396 10050 ft 287 kts 294°
2026-05-07 23:16 29.78506 -94.89450 9788 ft 284 kts 294°
2026-05-07 23:16 29.79374 -94.91492 9505 ft 283 kts 294°
2026-05-07 23:17 29.80234 -94.93520 9231 ft 280 kts 294°
2026-05-07 23:17 29.81077 -94.95511 8964 ft 278 kts 295°
2026-05-07 23:17 29.81931 -94.97530 8697 ft 276 kts 295°
2026-05-07 23:17 29.82773 -94.99523 8437 ft 276 kts 295°
2026-05-07 23:18 29.83611 -95.01508 8178 ft 275 kts 295°
2026-05-07 23:18 29.84447 -95.03489 7920 ft 274 kts 295°
2026-05-07 23:18 29.85268 -95.05434 7666 ft 273 kts 295°
2026-05-07 23:18 29.86098 -95.07402 7408 ft 272 kts 295°
2026-05-07 23:19 29.86924 -95.09360 7154 ft 272 kts 294°
2026-05-07 23:19 29.87616 -95.11392 6873 ft 272 kts 286°
2026-05-07 23:19 29.88087 -95.13493 6636 ft 269 kts 282°
2026-05-07 23:19 29.88486 -95.15586 6398 ft 267 kts 281°
2026-05-07 23:20 29.88880 -95.17679 6159 ft 268 kts 281°
2026-05-07 23:20 29.89164 -95.19815 5978 ft 272 kts 274°
2026-05-07 23:20 29.89222 -95.21990 5895 ft 271 kts 269°
2026-05-07 23:20 29.89205 -95.24160 5815 ft 270 kts 269°
2026-05-07 23:21 29.89191 -95.26317 5728 ft 268 kts 269°
2026-05-07 23:21 29.89182 -95.28467 5653 ft 268 kts 270°
2026-05-07 23:21 29.89188 -95.30616 5577 ft 268 kts 270°
2026-05-07 23:21 29.89195 -95.32773 5496 ft 268 kts 270°
2026-05-07 23:22 29.89200 -95.34916 5416 ft 267 kts 270°
2026-05-07 23:22 29.89207 -95.37058 5341 ft 267 kts 270°
2026-05-07 23:22 29.89214 -95.39162 5263 ft 262 kts 270°
2026-05-07 23:22 29.89217 -95.41231 5180 ft 253 kts 270°
2026-05-07 23:23 29.89222 -95.43222 5106 ft 244 kts 270°
2026-05-07 23:23 29.89226 -95.45175 5034 ft 238 kts 270°
2026-05-07 23:23 29.89232 -95.47044 4941 ft 235 kts 271°
2026-05-07 23:23 29.89239 -95.48919 4826 ft 233 kts 271°
2026-05-07 23:24 29.89246 -95.50790 4608 ft 234 kts 271°
2026-05-07 23:24 29.89253 -95.52684 4217 ft 239 kts 271°
2026-05-07 23:24 29.89283 -95.54616 3806 ft 243 kts 278°
2026-05-07 23:24 29.89972 -95.56351 3388 ft 241 kts 315°
2026-05-07 23:25 29.91400 -95.57282 3100 ft 234 kts 346°
2026-05-07 23:25 29.92959 -95.57590 3043 ft 222 kts 353°
2026-05-07 23:25 29.94452 -95.57787 2983 ft 210 kts 355°
2026-05-07 23:25 29.95865 -95.57963 2973 ft 200 kts 355°
2026-05-07 23:26 29.97200 -95.57810 2942 ft 192 kts 27°
2026-05-07 23:26 29.98157 -95.56780 3021 ft 188 kts 54°
2026-05-07 23:26 29.98713 -95.55442 3096 ft 190 kts 69°
2026-05-07 23:26 29.98999 -95.53965 3063 ft 188 kts 79°
2026-05-07 23:27 29.99261 -95.50969 2688 ft 187 kts 83°
2026-05-07 23:27 29.99312 -95.49473 2441 ft 186 kts 86°
2026-05-07 23:27 29.99326 -95.47988 2194 ft 184 kts 87°
2026-05-07 23:28 29.99331 -95.46521 1950 ft 182 kts 87°
2026-05-07 23:28 29.99334 -95.45068 1710 ft 181 kts 87°
2026-05-07 23:28 29.99335 -95.43617 1471 ft 181 kts 87°
2026-05-07 23:28 29.99337 -95.42158 1230 ft 179 kts 87°
2026-05-07 23:29 29.99338 -95.40760 991 ft 170 kts 87°
2026-05-07 23:29 29.99339 -95.39446 798 ft 159 kts 87°
2026-05-07 23:29 29.99340 -95.38193 572 ft 154 kts 87°
2026-05-07 23:29 29.99341 -95.36975 370 ft 150 kts 87°
2026-05-07 23:30 29.99341 -95.35782 176 ft 148 kts 86°
2026-05-07 23:30 29.99344 -95.34624 105 ft 129 kts 87°
2026-05-07 23:30 29.99347 -95.33934 105 ft 63 kts 91°
2026-05-07 23:30 29.99341 -95.33463 105 ft 54 kts 92°
2026-05-07 23:31 29.99294 -95.33203 105 ft 26 kts 120°
2026-05-07 23:31 29.99212 -95.33040 105 ft 21 kts 126°
2026-05-07 23:31 29.99101 -95.32972 105 ft 20 kts 180°
2026-05-07 23:31 29.98948 -95.32971 105 ft 24 kts 179°
2026-05-07 23:32 29.98768 -95.32971 105 ft 27 kts 180°
2026-05-07 23:32 29.98573 -95.32973 105 ft 25 kts 190°
2026-05-07 23:32 29.98448 -95.33022 105 ft 15 kts 215°
2026-05-07 23:32 29.98425 -95.33094 105 ft 7 kts 271°
2026-05-07 23:33 29.98425 -95.33112 105 ft 0 kts 270°